This is the latest recevied weather packets stored in our database for station/object K4AMF. If no packets are shown the sender has not sent any weather packets the latest 10 day(s).
| Time | Temp. | Humidity | Pressure | Rain* | Wind** | Luminosity | Snow |
|---|---|---|---|---|---|---|---|
| 1777844756 | 22.78° C | 53% | 1018.5 hPa | 0 mm | - | 322 W/m² | - |
| 1777844452 | 23.33° C | 51% | 1018.1 hPa | 0 mm | - | 341 W/m² | - |
| 1777844151 | 22.78° C | 53% | 1018.1 hPa | 0 mm | - | 347 W/m² | - |
| 1777843847 | 23.33° C | 52% | 1018.2 hPa | 0 mm | - | 374 W/m² | - |
| 1777843545 | 23.33° C | 51% | 1018.1 hPa | 0 mm | - | 347 W/m² | - |
| 1777843242 | 22.78° C | 51% | 1018.1 hPa | 0 mm | - | 375 W/m² | - |
| 1777842939 | 22.78° C | 51% | 1018 hPa | 0 mm | - | 409 W/m² | - |
| 1777842634 | 22.78° C | 53% | 1018.2 hPa | 0 mm | - | 426 W/m² | - |
| 1777842332 | 22.78° C | 53% | 1018.1 hPa | 0 mm | - | 451 W/m² | - |
| 1777842027 | 22.78° C | 52% | 1018.1 hPa | 0 mm | - | 462 W/m² | - |
| 1777841724 | 22.78° C | 52% | 1018.4 hPa | 0 mm | - | 404 W/m² | - |
| 1777841421 | 22.78° C | 52% | 1018.1 hPa | 0 mm | - | 444 W/m² | - |
| 1777841118 | 23.33° C | 52% | 1018.3 hPa | 0 mm | - | 464 W/m² | - |
| 1777840815 | 23.33° C | 53% | 1018.4 hPa | 0 mm | - | 370 W/m² | - |
| 1777840512 | 23.33° C | 52% | 1018.6 hPa | 0 mm | - | 491 W/m² | - |
| 1777840209 | 23.33° C | 52% | 1018.4 hPa | 0 mm | - | 500 W/m² | - |
| 1777839907 | 23.33° C | 52% | 1018.6 hPa | 0 mm | - | 521 W/m² | - |
| 1777839605 | 23.89° C | 52% | 1018.5 hPa | 0 mm | - | 537 W/m² | - |
| 1777839302 | 23.33° C | 53% | 1018.5 hPa | 0 mm | - | 556 W/m² | - |
| 1777838999 | 22.78° C | 51% | 1018.4 hPa | 0 mm | - | 563 W/m² | - |
| 1777838695 | 23.33° C | 53% | 1018.6 hPa | 0 mm | - | 580 W/m² | - |
| 1777838392 | 23.33° C | 52% | 1018.9 hPa | 0 mm | - | 621 W/m² | - |
| 1777838090 | 22.78° C | 54% | 1018.6 hPa | 0 mm | - | 643 W/m² | - |
| 1777837786 | 23.33° C | 53% | 1018.9 hPa | 0 mm | - | 551 W/m² | - |
| 1777837484 | 22.78° C | 56% | 1018.8 hPa | 0 mm | - | 666 W/m² | - |
* Rain latest hour (hover to see other rain measurements)
** Current wind speed in m/s (hover to see current wind gust speed)